RESURS-P 4

Last updated on Wed Sep 09 2026 00:02:46 GMT+0000 (Coordinated Universal Time)

1 59371U 24061A 26251.58813650 .00002657 00000+0 86985-4 0 9999 2 59371 97.2810 198.0837 0000830 118.4485 241.6841 15.32549677136535
UTC large
Height (km)
Speed (km/s)
/
Latitude / Longitude
Inclination (degrees)
Orbital Period (minutes)
Azimuth
Elevation
Range (km)
Doppler Factor

Next 0 passes for location: London (51.5072 / 0.1276)

No passes found over London.
RESURS-P 4